Regional Weather Roundup
Issued by NWS

Home | Current Version | Previous Version | Text Only | Print | Product List | Glossary Off
Versions: 1 2 3 4 5 6 7 8 9 10 11 12 13 14 15 16 17 18 19 20 21 22 23 24 25 26 27 28 29 30 31 32 33 34 35 36 37 38 39 40 41 42 43 44 45 46 47 48 49 50

000
ASUS43 KMKX 052111
RWRWI

WISCONSIN REGIONAL WEATHER ROUNDUP
NATIONAL WEATHER SERVICE MILWAUKEE/SULLIVAN WI
400 PM CDT THU MAY 05 2016

NOTE: "FAIR" INDICATES FEW OR NO CLOUDS BELOW 12,000 FEET WITH NO
SIGNIFICANT WEATHER AND/OR OBSTRUCTIONS TO VISIBILITY.

WIZ001-002-006>008-014>016-023>028-052200-
NORTHWEST WISCONSIN

CITY           SKY/WX    TMP DP  RH WIND       PRES   REMARKS
SUPERIOR ARPT  SUNNY     77  39  25 SW18G26   29.85F
ASHLAND        SUNNY     76  37  24 SW9G18    29.87F
HAYWARD        MOSUNNY   68  33  27 SW14      29.93F
SIREN          SUNNY     71  35  27 SW14      29.93F
CUMBERLAND     MOSUNNY   64  32  29 SW10      29.96F
RICE LAKE      SUNNY     68  32  27 W10       29.98F
CHETEK         MOSUNNY   68  37  32 SW10G17   29.96F
LADYSMITH      MOSUNNY   68  37  31 SW10      29.97F
EAU CLAIRE     MOSUNNY   66  33  29 SW8       29.97F
MENOMONIE      SUNNY     71  35  26 SW8       29.98S
NEW RICHMOND   SUNNY     69  36  30 SW8       29.96F
OSCEOLA        SUNNY     72  37  28 SW12G17   29.97F
$$

WIZ003>005-009-010-017-018-052200-
NORTH CENTRAL WISCONSIN

CITY           SKY/WX    TMP DP  RH WIND       PRES   REMARKS
MANITOWISH WTR MOSUNNY   67  36  31 SW6G16    29.91F
ARBOR VITAE    SUNNY     67  32  27 SW6       29.93F
WOODRUFF       SUNNY     67  32  27 SW6       29.93F
RHINELANDER    SUNNY     68  30  24 W12       29.94F
EAGLE RIVER    CLOUDY    66  24  19 W10       29.92F
LAND O LAKES   CLOUDY    68  26  21 SW6       29.93F
PHILLIPS       SUNNY     66  38  35 SW9       29.93F
TOMAHAWK       SUNNY     67  30  25 W5        29.94F
MEDFORD        SUNNY     64  38  38 SW10      29.97S
MERRILL        SUNNY     67  35  30 SW9       29.95F
$$

WIZ029-030-035-036-043>047-052200-
CENTRAL WISCONSIN

CITY           SKY/WX    TMP DP  RH WIND       PRES   REMARKS
WAUSAU         SUNNY     67  33  28 W10G16    29.94F
MOSINEE        SUNNY     64  32  29 W8        29.98F
MARSHFIELD     SUNNY     68  31  25 NW7       29.96F
STEVENS POINT  SUNNY     64  30  28 W10       29.97F
WAUPACA        SUNNY     69  27  21 CALM      29.96F
WAUTOMA        SUNNY     67  31  26 NW9G16    29.97
WISC RAPIDS    SUNNY     68  23  18 W6        29.98F
CAMP DOUGLAS   MOSUNNY   68  34  28 W6        29.98F
$$

WIZ011>013-019>022-031-037>040-048>050-052200-
NORTHEAST WISCONSIN

CITY           SKY/WX    TMP DP  RH WIND       PRES   REMARKS
ANTIGO         SUNNY     65  34  31 SW6       29.95F
SHAWANO        SUNNY     68  32  25 W6        29.94F
OCONTO         SUNNY     59  39  46 S9        29.95F
STURGEON BAY   SUNNY     59  36  41 NW5       29.99F
GREEN BAY      SUNNY     65  38  36 VRB5      29.97F
MANITOWOC      SUNNY     53  39  59 SE9       29.99F
APPLETON       MOSUNNY   63  34  34 VRB6      29.96F
CLINTONVILLE   SUNNY     66  28  24 CALM      29.94F
OSHKOSH        SUNNY     64  37  36 NW6       29.97F
$$

WIZ032>034-041-042-053>061-052200-
SOUTHWEST WISCONSIN

CITY           SKY/WX    TMP DP  RH WIND       PRES   REMARKS
LA CROSSE      SUNNY     70  33  25 CALM      29.98F
SPARTA         SUNNY     67  33  28 W8        29.99F
VIROQUA        SUNNY     66  28  24 W7        30.01F
BOSCOBEL       SUNNY     70  29  21 NW8       30.00F
PRAIRIE DU CHI SUNNY     67  29  24 CALM      30.00F
PLATTEVILLE    SUNNY     65  35  33 W9        30.00F
$$

WIZ056-057-062-063-064-067-068-052200-
SOUTH CENTRAL WISCONSIN

CITY           SKY/WX    TMP DP  RH WIND       PRES   REMARKS
REEDSBURG      SUNNY     65  37  35 W7        29.99S
BARABOO/DELLS  SUNNY     66  27  23 W9        29.98F
LONE ROCK      SUNNY     67  32  27 NW7       29.99F
MINERAL POINT  SUNNY     68  30  24 NW6       30.00F
MADISON        MOSUNNY   65  36  34 VRB5      29.98F
MIDDLETON      SUNNY     66  35  30 N5        29.99F
WATERTOWN      SUNNY     63  36  36 N6        29.98S
MONROE         SUNNY     63  34  34 NW7       29.99F
JANESVILLE     MOSUNNY   66  37  34 NW8       29.98F
$$

WIZ051-052-058>065-066-070>072-052200-
SOUTHEAST WISCONSIN

CITY           SKY/WX    TMP DP  RH WIND       PRES   REMARKS
MILWAUKEE      MOSUNNY   54  39  57 NE8       29.99F
WAUKESHA       SUNNY     61  37  41 W9        29.98F
MILWAUKEE/TIMM SUNNY     59  36  41 E8        29.98F
RACINE         SUNNY     55  39  54 NE9       30.00F
BURLINGTON     SUNNY     63  31  29 N5        29.97F
KENOSHA        SUNNY     58  42  55 E12       29.98F
FOND DU LAC    SUNNY     63  41  44 N9        29.98F
SHEBOYGAN      SUNNY     59  42  53 E9        29.97F
WEST BEND      SUNNY     63  32  31 NW8       29.97F
JUNEAU         SUNNY     62  35  35 NW6       29.99F
$$

LSZ147-162-052200-
LAKE SUPERIOR

STATION/POSITION TIME  TEMP    WIND        PRES    WAVE
                       AIR SEA DIR/SP/G            HT/PER
                 (UTC) (F)     (DEG/KT/KT) (MB)    (FT/S)
W MID LAKE BUOY  2050   43 37  160/  6/  6 1011.9F   0
DEVILS ISLAND    2100   61     240/  9/ 11 1011.0F
PORT WING        2000          220/ 11/ 16 1011.5
SAXON HARBOR     2030          210/  6/ 11 1011.2F
$$

LMZ867-665-643>646-052200-
LAKE MICHIGAN

STATION/POSITION TIME  TEMP    WIND        PRES    WAVE
                       AIR SEA DIR/SP/G            HT/PER
                 (UTC) (F)     (DEG/KT/KT) (MB)    (FT/S)
CHAMBERS ISLAND  2000   54     160/  5/  9 1015.2F
N MID LAKE BUOY  2050   41 39  210/  6/  6 1015.0F   0
NORTHPORT PIER   2000   45     140/  9/ 11 1015.2F
ALGOMA LAKESHORE 2015          130/  8/  9   N/A
KEWAUNEE LAKESHO 2000   45     120/  5/  7 1015.0F
SHEBOYGAN LAKESH 2100   43      80/  6/  7 1016.1F
PORT WASHINGTON  2000   46      80/  4/  6 1016.6F
S MID LAKE BUOY  2050   42 40   10/ 10/ 12 1015.6F   3/ 5
KENOSHA   LAKESH 2100   44      60/  5/  7 1015.6S
$$

TC  - TEMPERATURE IN CELSIUS
VSB - VISIBILITY IN STATUTE MILES
WCI - WIND CHILL INDEX
HX  - HEAT INDEX





USA.gov is the U.S. government's official web portal to all federal, state and local government web resources and services.